TimeMDT,TemperatureF,Dew PointF,Humidity,Sea Level PressureIn,VisibilityMPH,Wind Direction,Wind SpeedMPH,Gust SpeedMPH,PrecipitationIn,Events,Conditions,WindDirDegrees,DateUTC
12:15 AM,78.8,59.0,51,30.12,10.0,SSE,11.5,-,N/A,,Clear,150,2013-07-10 06:15:00
12:35 AM,78.8,59.0,51,30.13,10.0,SSE,11.5,-,N/A,,Clear,150,2013-07-10 06:35:00
12:55 AM,78.8,59.0,51,30.13,10.0,SSE,12.7,-,N/A,,Clear,150,2013-07-10 06:55:00
1:15 AM,77.0,60.8,57,30.13,10.0,SSE,10.4,-,N/A,,Clear,150,2013-07-10 07:15:00
1:55 AM,77.0,60.8,57,30.12,10.0,SSE,10.4,-,N/A,,Clear,150,2013-07-10 07:55:00
2:15 AM,75.2,60.8,61,30.12,10.0,SSE,9.2,-,N/A,,Clear,150,2013-07-10 08:15:00
2:35 AM,75.2,60.8,61,30.12,10.0,SSE,8.1,-,N/A,,Clear,150,2013-07-10 08:35:00
2:55 AM,75.2,60.8,61,30.12,10.0,SE,8.1,-,N/A,,Clear,140,2013-07-10 08:55:00
3:15 AM,75.2,62.6,65,30.12,10.0,SSE,8.1,-,N/A,,Clear,150,2013-07-10 09:15:00
3:35 AM,73.4,62.6,69,30.12,10.0,SSE,8.1,-,N/A,,Clear,150,2013-07-10 09:35:00
3:55 AM,73.4,62.6,69,30.12,10.0,SE,8.1,-,N/A,,Clear,140,2013-07-10 09:55:00
4:15 AM,73.4,62.6,69,30.12,10.0,SE,8.1,-,N/A,,Clear,130,2013-07-10 10:15:00
4:35 AM,73.4,62.6,69,30.12,10.0,SE,6.9,-,N/A,,Clear,130,2013-07-10 10:35:00
4:55 AM,73.4,62.6,69,30.13,10.0,SE,6.9,-,N/A,,Clear,130,2013-07-10 10:55:00
5:15 AM,71.6,62.6,73,30.13,10.0,SE,6.9,-,N/A,,Clear,140,2013-07-10 11:15:00
5:35 AM,71.6,62.6,73,30.13,10.0,SE,5.8,-,N/A,,Clear,140,2013-07-10 11:35:00
5:55 AM,71.6,62.6,73,30.13,10.0,SE,5.8,-,N/A,,Clear,140,2013-07-10 11:55:00
6:15 AM,71.6,60.8,69,30.13,10.0,SE,6.9,-,N/A,,Clear,140,2013-07-10 12:15:00
6:35 AM,71.6,62.6,73,30.13,10.0,SSE,4.6,-,N/A,,Clear,150,2013-07-10 12:35:00
6:55 AM,73.4,60.8,65,30.13,10.0,SE,5.8,-,N/A,,Clear,130,2013-07-10 12:55:00
7:15 AM,73.4,60.8,65,30.15,10.0,SE,6.9,-,N/A,,Clear,140,2013-07-10 13:15:00
7:35 AM,75.2,60.8,61,30.15,10.0,SE,8.1,-,N/A,,Clear,130,2013-07-10 13:35:00
7:55 AM,75.2,60.8,61,30.16,10.0,SE,8.1,-,N/A,,Clear,130,2013-07-10 13:55:00
8:15 AM,77.0,60.8,57,30.16,10.0,SE,8.1,-,N/A,,Clear,140,2013-07-10 14:15:00
8:35 AM,77.0,60.8,57,30.16,10.0,SSE,4.6,-,N/A,,Clear,160,2013-07-10 14:35:00
8:55 AM,78.8,60.8,54,30.16,10.0,SE,4.6,-,N/A,,Clear,130,2013-07-10 14:55:00
9:15 AM,80.6,60.8,51,30.16,10.0,SE,5.8,-,N/A,,Clear,130,2013-07-10 15:15:00
9:35 AM,80.6,60.8,51,30.16,10.0,SE,5.8,-,N/A,,Clear,130,2013-07-10 15:35:00
9:55 AM,82.4,60.8,48,30.15,10.0,ESE,3.5,-,N/A,,Clear,120,2013-07-10 15:55:00
10:15 AM,82.4,60.8,48,30.16,10.0,SW,3.5,-,N/A,,Clear,220,2013-07-10 16:15:00
10:35 AM,84.2,60.8,45,30.15,10.0,SE,5.8,-,N/A,,Clear,140,2013-07-10 16:35:00
10:55 AM,86.0,60.8,43,30.15,10.0,ESE,3.5,-,N/A,,Clear,120,2013-07-10 16:55:00
11:15 AM,86.0,60.8,43,30.15,10.0,East,4.6,-,N/A,,Clear,90,2013-07-10 17:15:00
11:35 AM,86.0,59.0,40,30.14,10.0,ESE,4.6,-,N/A,,Clear,120,2013-07-10 17:35:00
11:55 AM,87.8,59.0,38,30.14,10.0,East,5.8,-,N/A,,Clear,80,2013-07-10 17:55:00
12:15 PM,89.6,59.0,36,30.13,10.0,SSE,5.8,-,N/A,,Clear,160,2013-07-10 18:15:00
12:35 PM,89.6,59.0,36,30.12,10.0,South,3.5,-,N/A,,Clear,170,2013-07-10 18:35:00
12:55 PM,89.6,59.0,36,30.12,10.0,Calm,Calm,-,N/A,,Clear,0,2013-07-10 18:55:00
1:15 PM,89.6,59.0,36,30.11,10.0,South,3.5,-,N/A,,Scattered Clouds,170,2013-07-10 19:15:00
1:35 PM,91.4,59.0,34,30.10,10.0,NNE,4.6,-,N/A,,Scattered Clouds,20,2013-07-10 19:35:00
1:55 PM,91.4,57.2,31,30.09,10.0,SE,8.1,-,N/A,,Partly Cloudy,140,2013-07-10 19:55:00
2:15 PM,91.4,57.2,31,30.09,10.0,ESE,3.5,-,N/A,,Clear,120,2013-07-10 20:15:00
2:35 PM,93.2,57.2,30,30.08,10.0,SSW,5.8,-,N/A,,Clear,200,2013-07-10 20:35:00
2:55 PM,91.4,57.2,31,30.07,10.0,South,3.5,-,N/A,,Clear,180,2013-07-10 20:55:00
3:15 PM,93.2,57.2,30,30.06,10.0,SSE,4.6,-,N/A,,Clear,160,2013-07-10 21:15:00
3:35 PM,93.2,57.2,30,30.05,10.0,ESE,10.4,17.3,N/A,,Clear,110,2013-07-10 21:35:00
3:55 PM,93.2,57.2,30,30.04,10.0,SE,13.8,18.4,N/A,,Clear,140,2013-07-10 21:55:00
4:15 PM,93.2,57.2,30,30.04,10.0,South,8.1,-,N/A,,Clear,170,2013-07-10 22:15:00
4:35 PM,93.2,57.2,30,30.02,10.0,NE,8.1,-,N/A,,Clear,50,2013-07-10 22:35:00
4:55 PM,93.2,55.4,28,30.02,10.0,SE,11.5,16.1,N/A,,Clear,130,2013-07-10 22:55:00
5:15 PM,93.2,55.4,28,30.00,10.0,ESE,11.5,16.1,N/A,,Clear,110,2013-07-10 23:15:00
5:35 PM,95.0,57.2,28,30.00,10.0,SSE,11.5,16.1,N/A,,Clear,160,2013-07-10 23:35:00
5:55 PM,93.2,55.4,28,29.99,10.0,South,8.1,-,N/A,,Clear,170,2013-07-10 23:55:00
6:15 PM,93.2,55.4,28,29.99,10.0,South,9.2,-,N/A,,Clear,180,2013-07-11 00:15:00
6:35 PM,93.2,55.4,28,29.98,10.0,SE,8.1,-,N/A,,Clear,140,2013-07-11 00:35:00
6:55 PM,93.2,53.6,26,29.99,10.0,SE,8.1,-,N/A,,Clear,130,2013-07-11 00:55:00
7:15 PM,93.2,53.6,26,29.99,10.0,SE,10.4,-,N/A,,Clear,130,2013-07-11 01:15:00
7:35 PM,93.2,53.6,26,29.99,10.0,ESE,6.9,-,N/A,,Clear,120,2013-07-11 01:35:00
7:55 PM,91.4,55.4,29,29.99,10.0,SE,8.1,-,N/A,,Clear,140,2013-07-11 01:55:00
8:15 PM,89.6,55.4,31,29.99,10.0,SSE,9.2,-,N/A,,Clear,150,2013-07-11 02:15:00
8:35 PM,87.8,55.4,33,29.99,10.0,SSE,9.2,-,N/A,,Clear,150,2013-07-11 02:35:00
8:55 PM,86.0,55.4,35,30.01,10.0,SSE,9.2,-,N/A,,Clear,150,2013-07-11 02:55:00
9:15 PM,86.0,55.4,35,30.01,10.0,SSE,9.2,-,N/A,,Clear,160,2013-07-11 03:15:00
9:35 PM,86.0,55.4,35,30.02,10.0,SSE,8.1,-,N/A,,Clear,160,2013-07-11 03:35:00
9:55 PM,84.2,55.4,37,30.03,10.0,SSE,6.9,-,N/A,,Clear,150,2013-07-11 03:55:00
10:15 PM,84.2,55.4,37,30.04,10.0,SSE,8.1,-,N/A,,Clear,150,2013-07-11 04:15:00
10:35 PM,82.4,55.4,39,30.05,10.0,SSE,8.1,-,N/A,,Clear,160,2013-07-11 04:35:00
10:55 PM,82.4,55.4,39,30.06,10.0,SSE,6.9,-,N/A,,Clear,150,2013-07-11 04:55:00
11:15 PM,80.6,55.4,42,30.06,10.0,SSE,8.1,-,N/A,,Clear,150,2013-07-11 05:15:00
11:35 PM,80.6,55.4,42,30.07,10.0,SSE,9.2,-,N/A,,Clear,150,2013-07-11 05:35:00
11:55 PM,80.6,55.4,42,30.07,10.0,SSE,8.1,-,N/A,,Clear,160,2013-07-11 05:55:00